,,Stat6,,Stat2,,Stat8,,Stat9,,Stat10,,Wind1,,Wind1,
time,status,PA1M_AVG,status,PR1M_SUM,status,RH1M_AVG,status,SR1M_AVG,status,TA1M_AVG,status,W1dAve1m,status,W1sAve1m,
2004-03-11, 00:00:00,VALID,917.469,VALID,0,VALID,97.2943,VALID,-0.0339617,VALID,21.3506,VALID,59,VALID,0.160689,
2004-03-11, 00:01:00,VALID,917.487,VALID,0,VALID,97.6122,VALID,-0.0849042,VALID,21.3578,VALID,59,VALID,0.0943668,
2004-03-11, 00:02:00,VALID,917.506,VALID,0,VALID,97.8322,VALID,-0.0849042,VALID,21.3877,VALID,59,VALID,0.00279018,
2004-03-11, 00:03:00,VALID,917.511,VALID,0,VALID,97.9225,VALID,-0.0679233,VALID,21.4076,VALID,59,VALID,0,
2004-03-11, 00:04:00,VALID,917.507,VALID,0,VALID,97.9212,VALID,-0.0679233,VALID,21.3969,VALID,59,VALID,0,
2004-03-11, 00:05:00,VALID,917.5,VALID,0,VALID,97.5588,VALID,-0.0849042,VALID,21.3681,VALID,59,VALID,0,
2004-03-11, 00:06:00,VALID,917.469,VALID,0,VALID,97.382,VALID,-0.0679233,VALID,21.329,VALID,59,VALID,0,
2004-03-11, 00:07:00,VALID,917.446,VALID,0,VALID,97.4227,VALID,-0.0849042,VALID,21.3161,VALID,59,VALID,0,
2004-03-11, 00:08:00,VALID,917.404,VALID,0,VALID,97.5359,VALID,-0.0849042,VALID,21.3193,VALID,59,VALID,0,
2004-03-11, 00:09:00,VALID,917.397,VALID,0,VALID,97.7165,VALID,-0.0339617,VALID,21.3387,VALID,59,VALID,0.0473845,
2004-03-11, 00:10:00,VALID,917.393,VALID,0,VALID,97.9059,VALID,-0.0509425,VALID,21.3517,VALID,59,VALID,0.210565,
2004-03-11, 00:11:00,VALID,917.403,VALID,0,VALID,97.986,VALID,-0.101885,VALID,21.3546,VALID,55,VALID,0.230283,
2004-03-11, 00:12:00,VALID,917.419,VALID,0,VALID,97.9949,VALID,-0.0849042,VALID,21.3778,VALID,324,VALID,0.340588,
2004-03-11, 00:13:00,VALID,917.442,VALID,0,VALID,97.9046,VALID,-0.0509425,VALID,21.3942,VALID,320,VALID,0.148251,
2004-03-11, 00:14:00,VALID,917.444,VALID,0,VALID,97.8004,VALID,-0.101885,VALID,21.3877,VALID,320,VALID,0.184152,
2004-03-11, 00:15:00,VALID,917.449,VALID,0,VALID,97.4545,VALID,-0.0339617,VALID,21.3385,VALID,323,VALID,0.449695,
2004-03-11, 00:16:00,VALID,917.451,VALID,0,VALID,97.1035,VALID,0.0849042,VALID,21.2887,VALID,344,VALID,0.670922,
2004-03-11, 00:17:00,VALID,917.432,VALID,0,VALID,97.3706,VALID,0.0339617,VALID,21.2599,VALID,347,VALID,0.654474,
2004-03-11, 00:18:00,VALID,917.414,VALID,0,VALID,97.5588,VALID,0.0339617,VALID,21.2499,VALID,9,VALID,0.701069,
2004-03-11, 00:19:00,VALID,917.406,VALID,0,VALID,97.4647,VALID,0.0509425,VALID,21.2168,VALID,9,VALID,0.468023,
2004-03-11, 00:20:00,VALID,917.389,VALID,0,VALID,97.4888,VALID,0.0509425,VALID,21.2079,VALID,9,VALID,0.393466,
2004-03-11, 00:21:00,VALID,917.379,VALID,0,VALID,97.5359,VALID,0.0339617,VALID,21.185,VALID,9,VALID,0.0261628,
2004-03-11, 00:22:00,VALID,917.372,VALID,0,VALID,97.5473,VALID,0,VALID,21.1662,VALID,9,VALID,0,
2004-03-11, 00:23:00,VALID,917.376,VALID,0,VALID,97.7571,VALID,0.0169808,VALID,21.1525,VALID,9,VALID,0,
2004-03-11, 00:24:00,VALID,917.387,VALID,0,VALID,97.9046,VALID,0.0339617,VALID,21.1632,VALID,9,VALID,0.0142912,
2004-03-11, 00:25:00,VALID,917.394,VALID,0,VALID,98.0611,VALID,0.0339617,VALID,21.1635,VALID,9,VALID,0.105196,
2004-03-11, 00:26:00,VALID,917.395,VALID,0,VALID,98.2149,VALID,0.0169808,VALID,21.1465,VALID,9,VALID,0.207127,
2004-03-11, 00:27:00,VALID,917.372,VALID,0,VALID,98.2823,VALID,0.0679233,VALID,21.1503,VALID,9,VALID,0.645008,
2004-03-11, 00:28:00,VALID,917.37,VALID,0,VALID,98.3116,VALID,0.0169808,VALID,21.1242,VALID,9,VALID,0.561699,
2004-03-11, 00:29:00,VALID,917.364,VALID,0,VALID,98.468,VALID,0.0679233,VALID,21.1175,VALID,9,VALID,0.415153,
2004-03-11, 00:30:00,VALID,917.345,VALID,0,VALID,98.5443,VALID,0.0169808,VALID,21.1115,VALID,9,VALID,0.347124,
2004-03-11, 00:31:00,VALID,917.339,VALID,0,VALID,98.4031,VALID,-0.0169808,VALID,21.0798,VALID,9,VALID,0.448153,
2004-03-11, 00:32:00,VALID,917.342,VALID,0,VALID,98.4044,VALID,-0.0509425,VALID,21.0407,VALID,9,VALID,0.392969,
2004-03-11, 00:33:00,VALID,917.324,VALID,0,VALID,98.4705,VALID,0,VALID,21.0184,VALID,9,VALID,0.473366,
2004-03-11, 00:34:00,VALID,917.32,VALID,0,VALID,98.482,VALID,-0.0169808,VALID,20.9799,VALID,25,VALID,0.564499,
2004-03-11, 00:35:00,VALID,917.309,VALID,0,VALID,98.4972,VALID,-0.0169808,VALID,20.9212,VALID,34,VALID,0.555903,
2004-03-11, 00:36:00,VALID,917.315,VALID,0,VALID,98.6028,VALID,-0.0169808,VALID,20.8956,VALID,34,VALID,0.515253,
2004-03-11, 00:37:00,VALID,917.325,VALID,0,VALID,98.7172,VALID,-0.0169808,VALID,20.8666,VALID,34,VALID,0.425145,
2004-03-11, 00:38:00,VALID,917.326,VALID,0,VALID,98.7579,VALID,-0.0169808,VALID,20.8375,VALID,34,VALID,0.400484,
2004-03-11, 00:39:00,VALID,917.334,VALID,0,VALID,98.8596,VALID,0,VALID,20.8119,VALID,34,VALID,0.436141,
2004-03-11, 00:40:00,VALID,917.331,VALID,0,VALID,98.9931,VALID,-0.0339617,VALID,20.8157,VALID,34,VALID,0.40625,
2004-03-11, 00:41:00,VALID,917.337,VALID,0,VALID,99.0987,VALID,-0.0169808,VALID,20.8025,VALID,34,VALID,0.436967,
2004-03-11, 00:42:00,VALID,917.331,VALID,0,VALID,99.1839,VALID,-0.0339617,VALID,20.7893,VALID,32,VALID,0.572173,
2004-03-11, 00:43:00,VALID,917.33,VALID,0,VALID,99.2576,VALID,-0.0339617,VALID,20.8124,VALID,23,VALID,0.642154,
2004-03-11, 00:44:00,VALID,917.326,VALID,0,VALID,99.3441,VALID,-0.0509425,VALID,20.8025,VALID,18,VALID,0.610263,
2004-03-11, 00:45:00,VALID,917.297,VALID,0,VALID,99.3962,VALID,-0.0169808,VALID,20.8055,VALID,13,VALID,0.596007,
2004-03-11, 00:46:00,VALID,917.285,VALID,0,VALID,99.4115,VALID,0,VALID,20.7987,VALID,13,VALID,0.74256,
2004-03-11, 00:47:00,VALID,917.27,VALID,0,VALID,99.4255,VALID,-0.0509425,VALID,20.7764,VALID,13,VALID,0.773438,
2004-03-11, 00:48:00,VALID,917.247,VALID,0,VALID,99.4713,VALID,-0.0169808,VALID,20.7705,VALID,24,VALID,0.813322,
2004-03-11, 00:49:00,VALID,917.227,VALID,0,VALID,99.5361,VALID,-0.0509425,VALID,20.767,VALID,34,VALID,0.856827,
2004-03-11, 00:50:00,VALID,917.238,VALID,0,VALID,99.601,VALID,-0.0509425,VALID,20.7769,VALID,37,VALID,0.795603,
2004-03-11, 00:51:00,VALID,917.236,VALID,0,VALID,99.648,VALID,-0.0169808,VALID,20.7834,VALID,43,VALID,0.684126,
2004-03-11, 00:52:00,VALID,917.221,VALID,0,VALID,99.6595,VALID,-0.0339617,VALID,20.8001,VALID,48,VALID,0.643466,
2004-03-11, 00:53:00,VALID,917.216,VALID,0,VALID,99.6874,VALID,-0.0509425,VALID,20.7829,VALID,49,VALID,0.699855,
2004-03-11, 00:54:00,VALID,917.21,VALID,0,VALID,99.6874,VALID,-0.0679233,VALID,20.803,VALID,49,VALID,0.762835,
2004-03-11, 00:55:00,VALID,917.201,VALID,0,VALID,99.6607,VALID,-0.0679233,VALID,20.7993,VALID,49,VALID,0.753811,
2004-03-11, 00:56:00,VALID,917.181,VALID,0,VALID,99.6646,VALID,-0.0679233,VALID,20.8154,VALID,49,VALID,0.572917,
2004-03-11, 00:57:00,VALID,917.192,VALID,0,VALID,99.6506,VALID,-0.0679233,VALID,20.8351,VALID,49,VALID,0.557465,
2004-03-11, 00:58:00,VALID,917.178,VALID,0,VALID,99.5654,VALID,-0.0339617,VALID,20.8415,VALID,49,VALID,0.637576,
2004-03-11, 00:59:00,VALID,917.164,VALID,0,VALID,99.3899,VALID,-0.0679233,VALID,20.8119,VALID,49,VALID,0.625694,
2004-03-11, 01:00:00,VALID,917.145,VALID,0,VALID,99.2017,VALID,-0.0169808,VALID,20.7823,VALID,49,VALID,0.636018,
2004-03-11, 01:01:00,VALID,917.138,VALID,0,VALID,99.1394,VALID,0.0679233,VALID,20.7525,VALID,45,VALID,0.709794,
2004-03-11, 01:02:00,VALID,917.117,VALID,0,VALID,99.3276,VALID,0.0509425,VALID,20.7883,VALID,45,VALID,0.695313,
2004-03-11, 01:03:00,VALID,917.114,VALID,0,VALID,99.4128,VALID,0.0849042,VALID,20.8071,VALID,45,VALID,0.677734,
2004-03-11, 01:04:00,VALID,917.119,VALID,0,VALID,99.4891,VALID,0.0169808,VALID,20.8464,VALID,45,VALID,0.6875,
2004-03-11, 01:05:00,VALID,917.115,VALID,0,VALID,99.5158,VALID,0.0169808,VALID,20.8653,VALID,45,VALID,0.503089,
2004-03-11, 01:06:00,VALID,917.119,VALID,0,VALID,99.4789,VALID,0.0679233,VALID,20.8916,VALID,45,VALID,0.427431,
2004-03-11, 01:07:00,VALID,917.118,VALID,0,VALID,99.4484,VALID,0.0509425,VALID,20.8978,VALID,45,VALID,0.344638,
2004-03-11, 01:08:00,VALID,917.115,VALID,0,VALID,99.4357,VALID,0.0849042,VALID,20.904,VALID,73,VALID,0.483467,
2004-03-11, 01:09:00,VALID,917.107,VALID,0,VALID,99.4153,VALID,0.0509425,VALID,20.9075,VALID,84,VALID,0.31343,
2004-03-11, 01:10:00,VALID,917.088,VALID,0,VALID,99.381,VALID,0.0509425,VALID,20.914,VALID,91,VALID,0.489769,
2004-03-11, 01:11:00,VALID,917.071,VALID,0,VALID,99.2818,VALID,0.0849042,VALID,20.9341,VALID,102,VALID,0.644354,
2004-03-11, 01:12:00,VALID,917.046,VALID,0,VALID,99.1228,VALID,0.0339617,VALID,20.9175,VALID,102,VALID,0.601944,
2004-03-11, 01:13:00,VALID,917.026,VALID,0,VALID,99.1267,VALID,0.0679233,VALID,20.9142,VALID,102,VALID,0.68892,
2004-03-11, 01:14:00,VALID,917.01,VALID,0,VALID,99.1267,VALID,0.0679233,VALID,20.9269,VALID,102,VALID,0.678571,
2004-03-11, 01:15:00,VALID,916.998,VALID,0,VALID,99.1483,VALID,0.0169808,VALID,20.9471,VALID,108,VALID,0.849888,
2004-03-11, 01:16:00,VALID,916.978,VALID,0,VALID,99.0491,VALID,-0.0169808,VALID,20.9578,VALID,108,VALID,0.551172,
2004-03-11, 01:17:00,VALID,916.982,VALID,0,VALID,98.955,VALID,-0.0679233,VALID,20.9643,VALID,108,VALID,0.599085,
2004-03-11, 01:18:00,VALID,916.979,VALID,0,VALID,98.9219,VALID,-0.0849042,VALID,20.9807,VALID,108,VALID,0.388207,
2004-03-11, 01:19:00,VALID,916.96,VALID,0,VALID,98.796,VALID,-0.101885,VALID,20.9936,VALID,108,VALID,0.0973704,
2004-03-11, 01:20:00,VALID,916.944,VALID,0,VALID,98.5023,VALID,-0.0679233,VALID,20.9775,VALID,108,VALID,0.0963542,
2004-03-11, 01:21:00,VALID,916.928,VALID,0,VALID,98.3713,VALID,-0.0849042,VALID,20.9479,VALID,108,VALID,0.229651,
2004-03-11, 01:22:00,VALID,916.929,VALID,0,VALID,98.4654,VALID,-0.0169808,VALID,20.9705,VALID,101,VALID,0.594322,
2004-03-11, 01:23:00,VALID,916.933,VALID,0,VALID,98.4375,VALID,-0.0679233,VALID,20.9863,VALID,99,VALID,0.603016,
2004-03-11, 01:24:00,VALID,916.95,VALID,0,VALID,98.4196,VALID,0,VALID,21.0063,VALID,99,VALID,0.639509,
2004-03-11, 01:25:00,VALID,916.974,VALID,0,VALID,98.4375,VALID,-0.0339617,VALID,21.0092,VALID,106,VALID,0.831101,
2004-03-11, 01:26:00,VALID,916.988,VALID,0,VALID,98.4667,VALID,-0.0679233,VALID,21.0092,VALID,115,VALID,0.704013,
2004-03-11, 01:27:00,VALID,916.988,VALID,0,VALID,98.3828,VALID,-0.0509425,VALID,21.0289,VALID,121,VALID,0.802641,
2004-03-11, 01:28:00,VALID,916.977,VALID,0,VALID,98.3268,VALID,-0.0339617,VALID,21.0286,VALID,128,VALID,0.8625,
2004-03-11, 01:29:00,VALID,916.96,VALID,0,VALID,98.3179,VALID,-0.0679233,VALID,21.0386,VALID,128,VALID,1.00903,
2004-03-11, 01:30:00,VALID,916.926,VALID,0,VALID,98.248,VALID,-0.0169808,VALID,21.0647,VALID,128,VALID,0.944404,
2004-03-11, 01:31:00,VALID,916.891,VALID,0,VALID,98.1526,VALID,-0.0679233,VALID,21.0612,VALID,126,VALID,0.821987,
2004-03-11, 01:32:00,VALID,916.839,VALID,0,VALID,98.2022,VALID,-0.0509425,VALID,21.0485,VALID,118,VALID,0.817187,
2004-03-11, 01:33:00,VALID,916.794,VALID,0,VALID,98.3523,VALID,-0.0679233,VALID,21.0386,VALID,111,VALID,0.819792,
2004-03-11, 01:34:00,VALID,916.753,VALID,0,VALID,98.501,VALID,-0.0509425,VALID,21.0458,VALID,110,VALID,0.735283,
2004-03-11, 01:35:00,VALID,916.719,VALID,0,VALID,98.5532,VALID,-0.0509425,VALID,21.0127,VALID,110,VALID,0.626302,
2004-03-11, 01:36:00,VALID,916.7,VALID,0,VALID,98.6714,VALID,-0.0509425,VALID,20.9896,VALID,111,VALID,0.747159,
2004-03-11, 01:37:00,VALID,916.671,VALID,0,VALID,98.8278,VALID,-0.0849042,VALID,20.9936,VALID,123,VALID,0.639737,
2004-03-11, 01:38:00,VALID,916.644,VALID,0,VALID,98.8571,VALID,-0.0849042,VALID,20.9904,VALID,126,VALID,0.458705,
2004-03-11, 01:39:00,VALID,916.638,VALID,0,VALID,98.8901,VALID,-0.0679233,VALID,20.9839,VALID,126,VALID,0.500572,
2004-03-11, 01:40:00,VALID,916.618,VALID,0,VALID,98.9512,VALID,-0.0509425,VALID,20.971,VALID,126,VALID,0.410528,
2004-03-11, 01:41:00,VALID,916.621,VALID,0,VALID,98.9372,VALID,-0.0679233,VALID,20.9479,VALID,126,VALID,0.616992,
2004-03-11, 01:42:00,VALID,916.623,VALID,0,VALID,98.9779,VALID,-0.0339617,VALID,20.9287,VALID,126,VALID,0.611632,
2004-03-11, 01:43:00,VALID,916.622,VALID,0,VALID,99.0949,VALID,-0.0849042,VALID,20.9287,VALID,127,VALID,0.753815,
2004-03-11, 01:44:00,VALID,916.621,VALID,0,VALID,99.1699,VALID,-0.0849042,VALID,20.9489,VALID,138,VALID,0.965199,
2004-03-11, 01:45:00,VALID,916.619,VALID,0,VALID,99.2169,VALID,-0.0509425,VALID,20.9414,VALID,131,VALID,0.920351,
2004-03-11, 01:46:00,VALID,916.609,VALID,0,VALID,99.2373,VALID,0.0169808,VALID,20.9436,VALID,131,VALID,0.842842,
2004-03-11, 01:47:00,VALID,916.599,VALID,0,VALID,99.2602,VALID,0.0169808,VALID,20.9506,VALID,131,VALID,1.02858,
2004-03-11, 01:48:00,VALID,916.587,VALID,0,VALID,99.2716,VALID,0.0509425,VALID,20.9237,VALID,132,VALID,1.14063,
2004-03-11, 01:49:00,VALID,916.586,VALID,0,VALID,99.3034,VALID,0.0169808,VALID,20.9306,VALID,130,VALID,1.07459,
2004-03-11, 01:50:00,VALID,916.58,VALID,0,VALID,99.2882,VALID,0.0169808,VALID,20.9272,VALID,140,VALID,0.930469,
2004-03-11, 01:51:00,VALID,916.563,VALID,0,VALID,99.2932,VALID,0.0339617,VALID,20.9277,VALID,132,VALID,0.752257,
2004-03-11, 01:52:00,VALID,916.565,VALID,0,VALID,99.2742,VALID,0.0509425,VALID,20.9183,VALID,128,VALID,0.706174,
2004-03-11, 01:53:00,VALID,916.57,VALID,0,VALID,99.2983,VALID,0.0339617,VALID,20.9053,VALID,141,VALID,0.688616,
2004-03-11, 01:54:00,VALID,916.547,VALID,0,VALID,99.3365,VALID,0.0509425,VALID,20.8986,VALID,118,VALID,0.670785,
2004-03-11, 01:55:00,VALID,916.527,VALID,0,VALID,99.3517,VALID,0.0339617,VALID,20.8919,VALID,116,VALID,0.491824,
2004-03-11, 01:56:00,VALID,916.511,VALID,0,VALID,99.3352,VALID,0.0169808,VALID,20.8757,VALID,103,VALID,0.626453,
2004-03-11, 01:57:00,VALID,916.502,VALID,0,VALID,99.3556,VALID,0.0339617,VALID,20.8698,VALID,93,VALID,0.53311,
2004-03-11, 01:58:00,VALID,916.49,VALID,0,VALID,99.4001,VALID,0.0339617,VALID,20.8461,VALID,100,VALID,0.439787,
2004-03-11, 01:59:00,VALID,916.481,VALID,0,VALID,99.4776,VALID,0.0679233,VALID,20.8464,VALID,100,VALID,0.514172,
2004-03-11, 02:00:00,VALID,916.47,VALID,0,VALID,99.4903,VALID,0,VALID,20.8402,VALID,99,VALID,0.0985137,
2004-03-11, 02:01:00,VALID,916.473,VALID,0,VALID,99.5577,VALID,0.0339617,VALID,20.8472,VALID,99,VALID,0,
2004-03-11, 02:02:00,VALID,916.487,VALID,0,VALID,99.5933,VALID,0.0509425,VALID,20.8569,VALID,99,VALID,0,
2004-03-11, 02:03:00,VALID,916.487,VALID,0,VALID,99.615,VALID,0.0509425,VALID,20.8502,VALID,99,VALID,0.101381,
2004-03-11, 02:04:00,VALID,916.505,VALID,0,VALID,99.6137,VALID,0.0169808,VALID,20.8504,VALID,99,VALID,0.169876,
2004-03-11, 02:05:00,VALID,916.518,VALID,0,VALID,99.6277,VALID,0.0339617,VALID,20.8566,VALID,99,VALID,0.0932173,
2004-03-11, 02:06:00,VALID,916.534,VALID,0,VALID,99.6137,VALID,0.0679233,VALID,20.8464,VALID,99,VALID,0.112092,
2004-03-11, 02:07:00,VALID,916.544,VALID,0,VALID,99.6162,VALID,0.0509425,VALID,20.8502,VALID,99,VALID,0.118056,
2004-03-11, 02:08:00,VALID,916.569,VALID,0,VALID,99.5755,VALID,0.0509425,VALID,20.8531,VALID,99,VALID,0.302827,
2004-03-11, 02:09:00,VALID,916.577,VALID,0,VALID,99.5463,VALID,0.0679233,VALID,20.8472,VALID,99,VALID,0.144077,
2004-03-11, 02:10:00,VALID,916.58,VALID,0,VALID,99.517,VALID,0.0849042,VALID,20.8297,VALID,99,VALID,0.202398,
2004-03-11, 02:11:00,VALID,916.554,VALID,0,VALID,99.559,VALID,0.0849042,VALID,20.8303,VALID,99,VALID,0.213481,
2004-03-11, 02:12:00,VALID,916.533,VALID,0,VALID,99.5501,VALID,0.0849042,VALID,20.8437,VALID,99,VALID,0.0174419,
2004-03-11, 02:13:00,VALID,916.518,VALID,0,VALID,99.5577,VALID,0.0509425,VALID,20.8467,VALID,99,VALID,0.0305233,
2004-03-11, 02:14:00,VALID,916.497,VALID,0,VALID,99.545,VALID,0.0339617,VALID,20.8469,VALID,99,VALID,0.000181686,
2004-03-11, 02:15:00,VALID,916.487,VALID,0,VALID,99.5247,VALID,0.0339617,VALID,20.8502,VALID,99,VALID,0.102257,
2004-03-11, 02:16:00,VALID,916.478,VALID,0,VALID,99.4382,VALID,0.0169808,VALID,20.834,VALID,99,VALID,0.186228,
2004-03-11, 02:17:00,VALID,916.482,VALID,0,VALID,99.3772,VALID,0.0169808,VALID,20.8047,VALID,99,VALID,0.0804869,
2004-03-11, 02:18:00,VALID,916.485,VALID,0,VALID,99.3899,VALID,0.0509425,VALID,20.8047,VALID,99,VALID,0.13899,
2004-03-11, 02:19:00,VALID,916.491,VALID,0,VALID,99.3568,VALID,0.0339617,VALID,20.8117,VALID,99,VALID,0.213601,
2004-03-11, 02:20:00,VALID,916.494,VALID,0,VALID,99.3238,VALID,0.0509425,VALID,20.7953,VALID,99,VALID,0.101744,
2004-03-11, 02:21:00,VALID,916.491,VALID,0,VALID,99.2704,VALID,0.0679233,VALID,20.7925,VALID,99,VALID,0.205412,
2004-03-11, 02:22:00,VALID,916.48,VALID,0,VALID,99.1318,VALID,0.0169808,VALID,20.7664,VALID,98,VALID,0.520167,
2004-03-11, 02:23:00,VALID,916.476,VALID,0,VALID,99.0707,VALID,0.0509425,VALID,20.7142,VALID,96,VALID,0.622093,
2004-03-11, 02:24:00,VALID,916.484,VALID,0,VALID,99.1101,VALID,0.0339617,VALID,20.7016,VALID,60,VALID,0.959736,
2004-03-11, 02:25:00,VALID,916.503,VALID,0,VALID,98.9626,VALID,0.0849042,VALID,20.6464,VALID,52,VALID,0.97745,
2004-03-11, 02:26:00,VALID,916.522,VALID,0,VALID,98.9944,VALID,0.0679233,VALID,20.6499,VALID,52,VALID,0.945313,
2004-03-11, 02:27:00,VALID,916.524,VALID,0,VALID,98.9461,VALID,0.0339617,VALID,20.6203,VALID,50,VALID,0.868676,
2004-03-11, 02:28:00,VALID,916.519,VALID,0,VALID,98.9868,VALID,0.0679233,VALID,20.6117,VALID,49,VALID,0.745833,
2004-03-11, 02:29:00,VALID,916.503,VALID,0,VALID,99.0186,VALID,0.0509425,VALID,20.5888,VALID,48,VALID,0.523438,
2004-03-11, 02:30:00,VALID,916.476,VALID,0,VALID,99.1546,VALID,0.0169808,VALID,20.598,VALID,48,VALID,0.48274,
2004-03-11, 02:31:00,VALID,916.468,VALID,0,VALID,99.2704,VALID,0.0169808,VALID,20.6042,VALID,48,VALID,0.342152,
2004-03-11, 02:32:00,VALID,916.447,VALID,0,VALID,99.353,VALID,0.0509425,VALID,20.6305,VALID,37,VALID,0.45293,
2004-03-11, 02:33:00,VALID,916.418,VALID,0,VALID,99.4128,VALID,0.0849042,VALID,20.6367,VALID,33,VALID,0.475991,
2004-03-11, 02:34:00,VALID,916.404,VALID,0,VALID,99.4357,VALID,0.0679233,VALID,20.6467,VALID,32,VALID,0.629464,
2004-03-11, 02:35:00,VALID,916.378,VALID,0,VALID,99.4115,VALID,0.0679233,VALID,20.6434,VALID,32,VALID,0.784702,
2004-03-11, 02:36:00,VALID,916.346,VALID,0,VALID,99.3937,VALID,0.0509425,VALID,20.6206,VALID,34,VALID,0.825462,
2004-03-11, 02:37:00,VALID,916.329,VALID,0,VALID,99.3912,VALID,0.0849042,VALID,20.6144,VALID,38,VALID,0.99814,
2004-03-11, 02:38:00,VALID,916.299,VALID,0,VALID,99.456,VALID,0.0339617,VALID,20.6109,VALID,42,VALID,0.964208,
2004-03-11, 02:39:00,VALID,916.286,VALID,0,VALID,99.4738,VALID,0.0849042,VALID,20.6173,VALID,42,VALID,0.921026,
2004-03-11, 02:40:00,VALID,916.263,VALID,0,VALID,99.5081,VALID,0.0679233,VALID,20.6176,VALID,47,VALID,0.739955,
2004-03-11, 02:41:00,VALID,916.23,VALID,0,VALID,99.5348,VALID,0.0679233,VALID,20.6114,VALID,51,VALID,0.674782,
2004-03-11, 02:42:00,VALID,916.184,VALID,0,VALID,99.5832,VALID,0.0339617,VALID,20.5907,VALID,53,VALID,0.731148,
2004-03-11, 02:43:00,VALID,916.165,VALID,0,VALID,99.615,VALID,0.0339617,VALID,20.598,VALID,49,VALID,0.658681,
2004-03-11, 02:44:00,VALID,916.135,VALID,0,VALID,99.6735,VALID,0.0509425,VALID,20.5945,VALID,32,VALID,0.683685,
2004-03-11, 02:45:00,VALID,916.114,VALID,0,VALID,99.6963,VALID,0.0339617,VALID,20.5955,VALID,25,VALID,0.746652,
2004-03-11, 02:46:00,VALID,916.086,VALID,0,VALID,99.6429,VALID,-0.0339617,VALID,20.564,VALID,15,VALID,1.00745,
2004-03-11, 02:47:00,VALID,916.087,VALID,0,VALID,99.6455,VALID,-0.0849042,VALID,20.5419,VALID,9,VALID,0.532366,
2004-03-11, 02:48:00,VALID,916.094,VALID,0,VALID,99.6798,VALID,-0.0509425,VALID,20.5287,VALID,5,VALID,0.365007,
2004-03-11, 02:49:00,VALID,916.105,VALID,0,VALID,99.7307,VALID,-0.0509425,VALID,20.5287,VALID,338,VALID,0.538336,
2004-03-11, 02:50:00,VALID,916.109,VALID,0,VALID,99.7663,VALID,-0.0679233,VALID,20.5255,VALID,336,VALID,0.239169,
2004-03-11, 02:51:00,VALID,916.114,VALID,0,VALID,99.8235,VALID,-0.0679233,VALID,20.5354,VALID,336,VALID,0.00429688,
2004-03-11, 02:52:00,VALID,916.111,VALID,0,VALID,99.8807,VALID,-0.0509425,VALID,20.5648,VALID,336,VALID,0.107465,
2004-03-11, 02:53:00,VALID,916.081,VALID,0,VALID,99.9151,VALID,-0.0679233,VALID,20.5801,VALID,347,VALID,0.237723,
2004-03-11, 02:54:00,VALID,916.081,VALID,0,VALID,99.9214,VALID,-0.0509425,VALID,20.5874,VALID,21,VALID,0.633398,
2004-03-11, 02:55:00,VALID,916.054,VALID,0,VALID,99.9036,VALID,-0.0679233,VALID,20.568,VALID,34,VALID,0.737827,
2004-03-11, 02:56:00,VALID,916.04,VALID,0,VALID,99.8973,VALID,-0.0509425,VALID,20.5548,VALID,41,VALID,0.565952,
2004-03-11, 02:57:00,VALID,916.023,VALID,0,VALID,99.8922,VALID,-0.0509425,VALID,20.5317,VALID,47,VALID,0.64974,
2004-03-11, 02:58:00,VALID,916.023,VALID,0,VALID,99.8744,VALID,-0.0339617,VALID,20.5252,VALID,48,VALID,0.296669,
2004-03-11, 02:59:00,VALID,916.03,VALID,0,VALID,99.8731,VALID,-0.0679233,VALID,20.5126,VALID,48,VALID,0.0118886,
2004-03-11, 03:00:00,VALID,916.031,VALID,0,VALID,99.8744,VALID,-0.0509425,VALID,20.5091,VALID,48,VALID,0,
2004-03-11, 03:01:00,VALID,916.038,VALID,0,VALID,99.8718,VALID,0,VALID,20.5019,VALID,48,VALID,0.0875355,
2004-03-11, 03:02:00,VALID,916.056,VALID,0,VALID,99.8807,VALID,0.0509425,VALID,20.4892,VALID,62,VALID,0.288707,
2004-03-11, 03:03:00,VALID,916.066,VALID,0,VALID,99.8744,VALID,0.0679233,VALID,20.469,VALID,75,VALID,0.0761265,
2004-03-11, 03:04:00,VALID,916.09,VALID,0,VALID,99.8782,VALID,0.0509425,VALID,20.4626,VALID,75,VALID,0.233232,
2004-03-11, 03:05:00,VALID,916.102,VALID,0,VALID,99.882,VALID,0.0509425,VALID,20.4596,VALID,75,VALID,0.388822,
2004-03-11, 03:06:00,VALID,916.106,VALID,0,VALID,99.8884,VALID,0.0679233,VALID,20.4499,VALID,76,VALID,0.305069,
2004-03-11, 03:07:00,VALID,916.121,VALID,0,VALID,99.8845,VALID,0.0509425,VALID,20.4367,VALID,78,VALID,0.536156,
2004-03-11, 03:08:00,VALID,916.103,VALID,0,VALID,99.91,VALID,0.0509425,VALID,20.4303,VALID,78,VALID,0.32706,
2004-03-11, 03:09:00,VALID,916.119,VALID,0,VALID,99.9201,VALID,0.0509425,VALID,20.4141,VALID,78,VALID,0.335547,
2004-03-11, 03:10:00,VALID,916.105,VALID,0,VALID,99.9049,VALID,0.0509425,VALID,20.4015,VALID,78,VALID,0.344939,
2004-03-11, 03:11:00,VALID,916.093,VALID,0,VALID,99.9087,VALID,0.0339617,VALID,20.3873,VALID,78,VALID,0.360899,
2004-03-11, 03:12:00,VALID,916.078,VALID,0,VALID,99.9481,VALID,0.0849042,VALID,20.4174,VALID,67,VALID,0.454102,
2004-03-11, 03:13:00,VALID,916.067,VALID,0,VALID,99.9672,VALID,0.0509425,VALID,20.4373,VALID,63,VALID,0.120312,
2004-03-11, 03:14:00,VALID,916.06,VALID,0,VALID,99.9608,VALID,0.0339617,VALID,20.4529,VALID,63,VALID,0,
2004-03-11, 03:15:00,VALID,916.052,VALID,0,VALID,99.9644,VALID,0,VALID,20.4628,VALID,63,VALID,0,
2004-03-11, 03:16:00,VALID,916.063,VALID,0,VALID,99.9608,VALID,-0.0849042,VALID,20.4808,VALID,63,VALID,0,
2004-03-11, 03:17:00,VALID,916.072,VALID,0,VALID,99.9329,VALID,-0.0509425,VALID,20.494,VALID,63,VALID,0.0908717,
2004-03-11, 03:18:00,VALID,916.062,VALID,0,VALID,99.9062,VALID,-0.0509425,VALID,20.48,VALID,63,VALID,0.208534,
2004-03-11, 03:19:00,VALID,916.061,VALID,0,VALID,99.9138,VALID,-0.0339617,VALID,20.5096,VALID,63,VALID,0.399891,
2004-03-11, 03:20:00,VALID,916.045,VALID,0,VALID,99.9163,VALID,-0.0509425,VALID,20.5354,VALID,64,VALID,0.483842,
2004-03-11, 03:21:00,VALID,916.03,VALID,0,VALID,99.9074,VALID,-0.0339617,VALID,20.5384,VALID,64,VALID,0.169513,
2004-03-11, 03:22:00,VALID,916.028,VALID,0,VALID,99.9049,VALID,-0.0679233,VALID,20.5615,VALID,64,VALID,0.190407,
2004-03-11, 03:23:00,VALID,916.02,VALID,0,VALID,99.9062,VALID,-0.0849042,VALID,20.5677,VALID,67,VALID,0.481136,
2004-03-11, 03:24:00,VALID,916.017,VALID,0,VALID,99.8731,VALID,-0.0509425,VALID,20.5769,VALID,74,VALID,0.392442,
2004-03-11, 03:25:00,VALID,916.009,VALID,0,VALID,99.8604,VALID,-0.0849042,VALID,20.5971,VALID,110,VALID,0.621007,
2004-03-11, 03:26:00,VALID,916.007,VALID,0,VALID,99.8515,VALID,-0.0679233,VALID,20.5968,VALID,127,VALID,0.673209,
2004-03-11, 03:27:00,VALID,915.995,VALID,0,VALID,99.8362,VALID,-0.0679233,VALID,20.6035,VALID,122,VALID,0.824574,
2004-03-11, 03:28:00,VALID,915.982,VALID,0,VALID,99.826,VALID,-0.0849042,VALID,20.5973,VALID,110,VALID,0.851926,
2004-03-11, 03:29:00,VALID,915.96,VALID,0,VALID,99.8388,VALID,-0.101885,VALID,20.5936,VALID,103,VALID,0.83194,
2004-03-11, 03:30:00,VALID,915.945,VALID,0,VALID,99.8756,VALID,-0.0339617,VALID,20.603,VALID,103,VALID,0.627841,
2004-03-11, 03:31:00,VALID,915.916,VALID,0,VALID,99.9112,VALID,0.0169808,VALID,20.5985,VALID,104,VALID,0.768415,
2004-03-11, 03:32:00,VALID,915.881,VALID,0,VALID,99.9379,VALID,0.0339617,VALID,20.6214,VALID,113,VALID,0.528702,